Simultaneous Nadir Overpasses (SNOs) Predictions

Prediction of SNOs between FY3D and NOAA-19 Satellite Orbit:

Table of predicted SNOs for the next 14.0 days since TLE Epoch: 1/6/2024
Index Date (FY3D) Time (FY3D) Lat,Lon (FY3D) SZA (FY3D ) Date (NOAA-19) Time (NOAA-19) Lat,Lon (NOAA-19) SZA (NOAA-19 ) Distance(km) Time Diff (sec)
1 01/11/2024 11:31:58 75.75, 4.15 97.56 01/11/2024 11:30:52 75.77, 1.04 97.67 85.17 66
2 01/11/2024 12:22:53 -76.20, 169.88 81.97 01/11/2024 12:21:48 -76.19, 169.79 81.96 2.57 65
3 01/11/2024 13:13:39 76.20, -22.79 98.03 01/11/2024 13:12:41 76.20, -22.92 98.04 3.42 58
4 01/11/2024 14:04:25 -76.24, 144.36 81.93 01/11/2024 14:03:46 -76.22, 144.38 81.96 3.05 39
5 01/11/2024 14:55:11 76.24, -48.32 98.06 01/11/2024 14:54:39 76.22, -48.33 98.05 2.43 32
6 01/11/2024 15:45:56 -76.24, 119.00 81.95 01/11/2024 15:45:44 -76.24, 118.97 81.95 0.67 12
7 01/11/2024 16:36:42 76.23, -73.68 98.05 01/11/2024 16:36:37 76.24, -73.74 98.05 1.72 5
8 01/11/2024 17:27:28 -76.28, 93.47 81.92 01/11/2024 17:27:42 -76.26, 93.56 81.94 3.16 14
9 01/11/2024 18:18:14 76.28, -99.21 98.08 01/11/2024 18:18:35 76.26, -99.15 98.06 2.13 21
10 01/11/2024 19:08:59 -76.27, 68.11 81.93 01/11/2024 19:09:40 -76.28, 68.15 81.93 1.36 41
11 01/11/2024 19:59:45 76.27,-124.57 98.06 01/11/2024 20:00:33 76.28,-124.56 98.07 1.33 48
12 01/11/2024 20:50:30 -76.27, 42.75 81.95 01/11/2024 20:51:38 -76.30, 42.74 81.92 3.75 68
13 01/11/2024 21:41:17 76.31,-150.09 98.10 01/11/2024 21:42:31 76.30,-149.97 98.08 3.33 74



Historial Predications of SNOs between FY3D and NOAA-19
